GW4053 Weather Reports


Display with metric or nautical units.
time (UTC)temp
F
wind
direction
speed
MPH
gust
MPH
rain 1hr
in
rain 24hr
in
rain mn
in
humidity
%
barometer
mb
20260906043337 68 288 2.0 4.0 0.00 0.00 0.00 56 1023.9
20260906042337 69 270 2.0 4.0 0.00 0.00 0.00 56 1023.8
20260906041337 69 282 2.0 4.0 0.00 0.00 0.00 56 1023.8
20260906040337 69 270 2.0 4.0 0.00 0.00 0.00 55 1023.8
20260906035338 69 280 2.0 4.0 0.00 0.00 0.00 55 1023.8
20260906034337 69 285 2.0 4.0 0.00 0.00 0.00 55 1023.6
20260906033237 70 284 2.0 4.0 0.00 0.00 0.00 55 1023.6
20260906032237 70 270 2.0 4.0 0.00 0.00 0.00 55 1023.4
20260906031237 70 270 2.0 5.0 0.00 0.00 0.00 54 1023.5
20260906030237 70 270 2.0 4.0 0.00 0.00 0.00 54 1023.5
20260906025237 70 280 2.0 4.0 0.00 0.00 0.00 54 1023.5
20260906024237 71 282 2.0 5.0 0.00 0.00 0.00 54 1023.4
20260906023237 71 270 2.0 4.0 0.00 0.00 0.00 53 1023.4
20260906022238 71 292 2.0 4.0 0.00 0.00 0.00 53 1023.4
20260906021238 72 282 2.0 4.0 0.00 0.00 0.00 53 1023.4
20260906020238 72 270 2.0 5.0 0.00 0.00 0.00 53 1023.3
20260906015237 72 299 3.0 5.0 0.00 0.00 0.00 53 1023.3
20260906014238 72 301 3.0 5.0 0.00 0.00 0.00 52 1023.3
20260906013138 73 288 3.0 4.0 0.00 0.00 0.00 52 1023.5
20260906012137 73 288 2.0 4.0 0.00 0.00 0.00 52 1023.4
20260906011137 73 298 2.0 4.0 0.00 0.00 0.00 51 1023.4
20260906010137 74 282 2.0 4.0 0.00 0.00 0.00 51 1023.6
20260906005137 74 306 2.0 4.0 0.00 0.00 0.00 50 1023.4
20260906004137 74 289 2.0 5.0 0.00 0.00 0.00 50 1023.4
20260906003137 74 294 2.0 5.0 0.00 0.00 0.00 50 1023.4
20260906002137 74 299 2.0 4.0 0.00 0.00 0.00 50 1023.2
20260906001137 75 281 2.0 5.0 0.00 0.00 0.00 50 1023.3
20260906000437 75 299 2.0 4.0 0.00 0.00 0.00 50 1023.3
20260905235040 75 287 2.0 4.0 0.00 0.00 0.00 50 1023.3
20260905234039 76 297 3.0 5.0 0.00 0.00 0.00 50 1023.2
20260905233039 76 299 2.0 4.0 0.00 0.00 0.00 49 1023.1
20260905232039 77 315 2.0 4.0 0.00 0.00 0.00 49 1023.2
20260905231040 77 310 2.0 4.0 0.00 0.00 0.00 49 1023.2
20260905230239 77 300 2.0 4.0 0.00 0.00 0.00 49 1023.2
20260905225139 77 309 2.0 4.0 0.00 0.00 0.00 49 1023.1
20260905224239 78 312 3.0 6.0 0.00 0.00 0.00 48 1023.2
20260905223340 78 316 2.0 4.0 0.00 0.00 0.00 47 1023.2
20260905215939 79 314 5.0 9.0 0.00 0.00 0.00 47 1023.1
20260905214939 80 317 4.0 9.0 0.00 0.00 0.00 47 1023.0
20260905213939 80 354 2.0 4.0 0.00 0.00 0.00 45 1022.9
20260905212939 80 320 4.0 6.0 0.00 0.00 0.00 46 1022.9
20260905211941 80 320 4.0 6.0 0.00 0.00 0.00 45 1022.7
20260905210940 81 323 2.0 6.0 0.00 0.00 0.00 45 1022.9
20260905210040 81 339 2.0 4.0 0.00 0.00 0.00 45 1022.9
20260905204940 81 324 3.0 7.0 0.00 0.00 0.00 45 1022.9
20260905203939 81 332 2.0 6.0 0.00 0.00 0.00 44 1022.7
20260905202939 82 324 2.0 6.0 0.00 0.00 0.00 44 1022.7
20260905201839 82 324 2.0 6.0 0.00 0.00 0.00 44 1022.5
20260905200941 82 354 2.0 5.0 0.00 0.00 0.00 42 1022.5
20260905195840 83 352 2.0 4.0 0.00 0.00 0.00 42 1022.5
20260905194839 83 14 2.0 6.0 0.00 0.00 0.00 41 1022.4
20260905185839 84 315 4.0 7.0 0.00 0.00 0.00 40 1021.8
20260905184839 85 326 3.0 9.0 0.00 0.00 0.00 39 1021.7
20260905183739 85 324 4.0 11.0 0.00 0.00 0.00 38 1021.5
20260905182739 85 352 4.0 9.0 0.00 0.00 0.00 38 1021.5
20260905181740 86 343 4.0 10.0 0.00 0.00 0.00 37 1021.5
20260905180739 86 320 6.0 11.0 0.00 0.00 0.00 36 1021.4
20260905175739 87 324 5.0 9.0 0.00 0.00 0.00 35 1021.2
20260905174739 88 323 5.0 11.0 0.00 0.00 0.00 34 1021.2
20260905173740 89 327 4.0 7.0 0.00 0.00 0.00 32 1021.0
20260905172739 91 315 5.0 10.0 0.00 0.00 0.00 30 1020.7
20260905171739 92 328 4.0 10.0 0.00 0.00 0.00 29 1021.1
20260905170739 94 303 4.0 9.0 0.00 0.00 0.00 28 1021.1
20260905165741 94 296 5.0 11.0 0.00 0.00 0.00 28 1021.0
20260905164639 94 287 6.0 11.0 0.00 0.00 0.00 27 1021.2
20260905163640 94 285 6.0 12.0 0.00 0.00 0.00 26 1021.0
20260905162639 94 274 7.0 20.0 0.00 0.00 0.00 26 1021.0
20260905161639 94 266 9.0 16.0 0.00 0.00 0.00 25 1020.8
20260905160639 94 262 9.0 19.0 0.00 0.00 0.00 25 1020.8
20260905155639 95 284 8.0 15.0 0.00 0.00 0.00 25 1020.8
20260905154640 95 283 7.0 17.0 0.00 0.00 0.00 24 1020.7
20260905153640 95 270 7.0 17.0 0.00 0.00 0.00 25 1020.6
20260905152640 95 264 10.0 18.0 0.00 0.00 0.00 24 1020.7
20260905151640 95 270 9.0 18.0 0.00 0.00 0.00 24 1020.6
20260905150539 95 263 11.0 24.0 0.00 0.00 0.00 24 1020.5
20260905150239 95 276 8.0 16.0 0.00 0.00 0.00 23 1020.5
20260905145239 95 253 9.0 17.0 0.00 0.00 0.00 24 1020.6
20260905144139 94 257 11.0 17.0 0.00 0.00 0.00 24 1020.7
20260905143241 94 253 10.0 19.0 0.00 0.00 0.00 25 1020.8
20260905142139 94 249 10.0 19.0 0.00 0.00 0.00 26 1020.7
20260905141140 93 246 11.0 23.0 0.00 0.00 0.00 26 1020.8
20260905140139 93 246 11.0 21.0 0.00 0.00 0.00 26 1020.7
20260905135140 93 264 9.0 19.0 0.00 0.00 0.00 27 1020.7
20260905134139 93 248 11.0 23.0 0.00 0.00 0.00 27 1020.8
20260905133139 92 247 9.0 23.0 0.00 0.00 0.00 29 1020.7
20260905132139 92 248 11.0 21.0 0.00 0.00 0.00 29 1021.0
20260905131139 92 247 9.0 17.0 0.00 0.00 0.00 29 1020.8
20260905130139 92 242 11.0 20.0 0.00 0.00 0.00 30 1021.1
20260905125039 91 244 10.0 27.0 0.00 0.00 0.00 30 1021.1
20260905124541 91 249 8.0 14.0 0.00 0.00 0.00 30 1021.1
20260905122539 91 250 10.0 20.0 0.00 0.00 0.00 32 1021.3
20260905121539 90 245 9.0 18.0 0.00 0.00 0.00 31 1021.4
20260905120439 90 242 9.0 17.0 0.00 0.00 0.00 32 1021.6
20260905115439 90 265 9.0 16.0 0.00 0.00 0.00 31 1021.5
20260905114439 89 263 11.0 20.0 0.00 0.00 0.00 32 1021.7
20260905113439 89 266 9.0 21.0 0.00 0.00 0.00 31 1021.7
20260905112439 88 270 8.0 19.0 0.00 0.00 0.00 32 1021.7
20260905111439 88 259 8.0 19.0 0.00 0.00 0.00 33 1021.8
20260905110440 87 287 7.0 16.0 0.00 0.00 0.00 33 1021.8
20260905105439 87 256 9.0 17.0 0.00 0.00 0.00 32 1021.7
20260905104439 86 274 9.0 16.0 0.00 0.00 0.00 32 1021.7
20260905103439 86 267 7.0 16.0 0.00 0.00 0.00 36 1021.8
20260905102439 85 284 7.0 14.0 0.00 0.00 0.00 36 1021.9
20260905101439 84 286 6.0 13.0 0.00 0.00 0.00 38 1021.8
20260905100439 83 279 7.0 16.0 0.00 0.00 0.00 40 1022.0
20260905095339 81 295 6.0 11.0 0.00 0.00 0.00 41 1022.1
20260905094339 80 282 2.0 7.0 0.00 0.00 0.00 52 1022.4
20260905093339 79 320 2.0 6.0 0.00 0.00 0.00 53 1022.5
20260905092339 79 353 2.0 6.0 0.00 0.00 0.00 54 1022.5
20260905091339 78 293 2.0 7.0 0.00 0.00 0.00 54 1022.6
20260905090340 77 358 2.0 7.0 0.00 0.00 0.00 56 1022.7
20260905085339 76 15 3.0 7.0 0.00 0.00 0.00 56 1022.8
20260905084339 76 346 2.0 7.0 0.00 0.00 0.00 56 1022.8
20260905083339 75 9 3.0 7.0 0.00 0.00 0.00 57 1023.2
20260905082340 74 16 3.0 7.0 0.00 0.00 0.00 57 1023.2
20260905081339 74 27 3.0 7.0 0.00 0.00 0.00 57 1023.0
20260905080239 74 14 3.0 7.0 0.00 0.00 0.00 58 1023.0
20260905075239 73 17 3.0 6.0 0.00 0.00 0.00 58 1023.1
20260905074239 73 15 3.0 8.0 0.00 0.00 0.00 59 1023.0
20260905073239 72 16 3.0 8.0 0.00 0.00 0.00 60 1023.2
20260905072240 72 19 3.0 7.0 0.00 0.00 0.00 60 1023.2
20260905071240 71 28 3.0 8.0 0.00 0.00 0.00 60 1023.3
20260905065219 71 14 3.0 6.0 0.00 0.00 0.00 60 1023.3
20260905064219 70 17 2.0 5.0 0.00 0.00 0.00 61 1023.4
20260905063319 70 349 2.0 5.0 0.00 0.00 0.00 61 1023.5
20260905062219 69 352 2.0 6.0 0.00 0.00 0.00 60 1023.4
20260905061220 69 342 2.0 5.0 0.00 0.00 0.00 60 1023.3
20260905060219 69 317 2.0 4.0 0.00 0.00 0.00 59 1023.3
20260905055219 69 315 2.0 4.0 0.00 0.00 0.00 59 1023.3
20260905054219 69 306 2.0 3.0 0.00 0.00 0.00 59 1023.3
20260905053119 69 289 2.0 5.0 0.00 0.00 0.00 60 1023.3
20260905052119 69 270 2.0 4.0 0.00 0.00 0.00 59 1023.3
20260905051119 69 279 2.0 4.0 0.00 0.00 0.00 59 1023.3
20260905050119 69 281 2.0 4.0 0.00 0.00 0.00 59 1023.1
20260905045119 69 280 2.0 4.0 0.00 0.00 0.00 58 1023.1